| time (UTC) | temp F | wind direction | speed MPH | gust MPH | rain 1hr in | rain 24hr in | rain mn in | humidity % | barometer mb |
| 20260505204531 | 79 | 16 | 0.0 | 2.0 | 0.00 | 0.00 | 0.00 | 46 | 1013.5 |
| 20260505203032 | 79 | 339 | 0.0 | 3.0 | 0.00 | 0.00 | 0.00 | 46 | 1013.6 |
| 20260505201529 | 79 | 329 | 0.0 | 3.0 | 0.00 | 0.00 | 0.00 | 46 | 1013.6 |
| 20260505200116 | 78 | 18 | 0.0 | 2.0 | 0.00 | 0.00 | 0.00 | 47 | 1013.8 |
| 20260505193030 | 77 | 14 | 0.0 | 2.0 | 0.00 | 0.00 | 0.00 | 48 | 1014.0 |
| 20260505191531 | 77 | 15 | 0.0 | 1.0 | 0.00 | 0.00 | 0.00 | 47 | 1014.1 |
| 20260505184529 | 76 | 5 | 0.0 | 4.0 | 0.00 | 0.00 | 0.00 | 49 | 1014.2 |
| 20260505183041 | 76 | 16 | 0.0 | 4.0 | 0.00 | 0.00 | 0.00 | 49 | 1014.3 |
| 20260505181530 | 75 | 351 | 0.0 | 3.0 | 0.00 | 0.00 | 0.00 | 51 | 1014.2 |
| 20260505180030 | 73 | 318 | 0.0 | 5.0 | 0.00 | 0.00 | 0.00 | 54 | 1014.3 |
| 20260505174530 | 71 | 268 | 2.0 | 9.0 | 0.00 | 0.00 | 0.00 | 54 | 1014.4 |
| 20260505173029 | 72 | 273 | 2.0 | 7.0 | 0.00 | 0.00 | 0.00 | 53 | 1014.4 |
| 20260505164529 | 71 | 306 | 0.0 | 3.0 | 0.00 | 0.00 | 0.00 | 55 | 1014.3 |
| 20260505161530 | 69 | 299 | 0.0 | 4.0 | 0.00 | 0.00 | 0.00 | 58 | 1014.3 |
| 20260505153028 | 65 | 79 | 0.0 | 4.0 | 0.00 | 0.00 | 0.00 | 67 | 1014.1 |
| 20260505151603 | 64 | 216 | 1.0 | 4.0 | 0.00 | 0.00 | 0.00 | 68 | 1014.0 |
| 20260505124530 | 58 | 330 | 0.0 | 2.0 | 0.00 | 0.00 | 0.00 | 78 | 1012.5 |
| 20260505123032 | 58 | 297 | 0.0 | 1.0 | 0.00 | 0.00 | 0.00 | 76 | 1012.3 |
| 20260505121643 | 59 | 292 | 0.0 | 0.0 | 0.00 | 0.00 | 0.00 | 75 | 1012.2 |
| 20260505120033 | 60 | 269 | 0.0 | 4.0 | 0.00 | 0.00 | 0.00 | 74 | 1012.2 |
| 20260505114532 | 60 | 295 | 0.0 | 3.0 | 0.00 | 0.00 | 0.00 | 74 | 1012.1 |
| 20260505110106 | 60 | 325 | 0.0 | 3.0 | 0.00 | 0.00 | 0.00 | 74 | 1011.8 |
| 20260505101531 | 61 | 291 | 0.0 | 2.0 | 0.00 | 0.00 | 0.00 | 73 | 1011.4 |
| 20260505100030 | 62 | 293 | 0.0 | 2.0 | 0.00 | 0.00 | 0.00 | 72 | 1011.4 |
| 20260505094531 | 62 | 284 | 0.0 | 2.0 | 0.00 | 0.00 | 0.00 | 72 | 1011.2 |
| 20260505093104 | 61 | 299 | 0.0 | 2.0 | 0.00 | 0.00 | 0.00 | 74 | 1011.2 |
| 20260505091530 | 61 | 269 | 0.0 | 1.0 | 0.00 | 0.00 | 0.00 | 72 | 1011.1 |
| 20260505090030 | 63 | 247 | 0.0 | 3.0 | 0.00 | 0.00 | 0.00 | 68 | 1011.1 |
| 20260505084531 | 65 | 258 | 0.0 | 7.0 | 0.00 | 0.00 | 0.00 | 66 | 1011.0 |
| 20260505083026 | 65 | 314 | 0.0 | 7.0 | 0.00 | 0.00 | 0.00 | 64 | 1011.0 |
| 20260505081530 | 66 | 268 | 0.0 | 4.0 | 0.00 | 0.00 | 0.00 | 64 | 1011.0 |
| 20260505080033 | 66 | 275 | 0.0 | 3.0 | 0.00 | 0.00 | 0.00 | 64 | 1010.9 |
| 20260505074530 | 66 | 274 | 0.0 | 6.0 | 0.00 | 0.00 | 0.00 | 64 | 1010.9 |
| 20260505073106 | 66 | 268 | 0.0 | 4.0 | 0.00 | 0.00 | 0.00 | 64 | 1010.7 |
| 20260505071532 | 65 | 278 | 0.0 | 5.0 | 0.00 | 0.00 | 0.00 | 66 | 1010.6 |
| 20260505070031 | 65 | 259 | 0.0 | 2.0 | 0.00 | 0.00 | 0.00 | 64 | 1010.6 |
| 20260505064532 | 67 | 247 | 0.0 | 2.0 | 0.00 | 0.00 | 0.00 | 60 | 1010.5 |
| 20260505063027 | 68 | 247 | 1.0 | 4.0 | 0.00 | 0.00 | 0.00 | 58 | 1010.4 |
| 20260505060030 | 68 | 297 | 0.0 | 13.0 | 0.00 | 0.00 | 0.00 | 58 | 1010.1 |
| 20260505054530 | 68 | 294 | 0.0 | 2.0 | 0.00 | 0.00 | 0.00 | 57 | 1010.0 |
| 20260505053031 | 68 | 293 | 0.0 | 2.0 | 0.00 | 0.00 | 0.00 | 56 | 1010.0 |
| 20260505051530 | 69 | 258 | 0.0 | 2.0 | 0.00 | 0.00 | 0.00 | 53 | 1010.0 |
| 20260505041530 | 71 | 271 | 2.0 | 7.0 | 0.00 | 0.00 | 0.00 | 47 | 1009.2 |
| 20260505040042 | 72 | 267 | 1.0 | 9.0 | 0.00 | 0.00 | 0.00 | 48 | 1009.0 |
| 20260505034528 | 72 | 267 | 1.0 | 8.0 | 0.00 | 0.00 | 0.00 | 48 | 1008.8 |
| 20260505033031 | 72 | 269 | 1.0 | 7.0 | 0.00 | 0.00 | 0.00 | 48 | 1008.7 |
| 20260505031529 | 73 | 278 | 0.0 | 3.0 | 0.00 | 0.00 | 0.00 | 47 | 1008.5 |
| 20260505030027 | 75 | 265 | 1.0 | 8.0 | 0.00 | 0.00 | 0.00 | 45 | 1008.3 |
| 20260505024529 | 76 | 276 | 0.0 | 3.0 | 0.00 | 0.00 | 0.00 | 43 | 1008.2 |
| 20260505023103 | 78 | 273 | 0.0 | 4.0 | 0.00 | 0.00 | 0.00 | 40 | 1008.2 |
| 20260505021527 | 80 | 265 | 1.0 | 7.0 | 0.00 | 0.00 | 0.00 | 39 | 1008.1 |
| 20260505020031 | 83 | 302 | 0.0 | 4.0 | 0.00 | 0.00 | 0.00 | 38 | 1008.1 |
| 20260505014531 | 84 | 290 | 0.0 | 5.0 | 0.00 | 0.00 | 0.00 | 37 | 1008.1 |
| 20260505013102 | 84 | 296 | 0.0 | 4.0 | 0.00 | 0.00 | 0.00 | 37 | 1008.1 |
| 20260505011530 | 84 | 296 | 0.0 | 3.0 | 0.00 | 0.00 | 0.00 | 39 | 1008.0 |
| 20260505010031 | 84 | 304 | 0.0 | 4.0 | 0.00 | 0.00 | 0.00 | 37 | 1008.0 |
| 20260505004530 | 85 | 276 | 1.0 | 10.0 | 0.00 | 0.00 | 0.00 | 34 | 1008.1 |
| 20260505001528 | 86 | 308 | 0.0 | 5.0 | 0.00 | 0.00 | 0.00 | 37 | 1008.3 |
| 20260504234529 | 86 | 306 | 1.0 | 5.0 | 0.00 | 0.00 | 0.00 | 34 | 1008.2 |
| 20260504233032 | 86 | 292 | 1.0 | 7.0 | 0.00 | 0.00 | 0.00 | 36 | 1008.2 |
| 20260504231529 | 86 | 330 | 1.0 | 9.0 | 0.00 | 0.00 | 0.00 | 39 | 1008.3 |
| 20260504230030 | 86 | 359 | 0.0 | 4.0 | 0.00 | 0.00 | 0.00 | 39 | 1008.4 |
| 20260504223028 | 88 | 11 | 0.0 | 3.0 | 0.00 | 0.00 | 0.00 | 37 | 1008.9 |
| 20260504221606 | 88 | 334 | 0.0 | 2.0 | 0.00 | 0.00 | 0.00 | 36 | 1009.0 |
| 20260504220104 | 87 | 324 | 0.0 | 4.0 | 0.00 | 0.00 | 0.00 | 38 | 1009.1 |
| 20260504214614 | 87 | 32 | 0.0 | 3.0 | 0.00 | 0.00 | 0.00 | 38 | 1009.2 |
| 20260504213031 | 87 | 356 | 0.0 | 1.0 | 0.00 | 0.00 | 0.00 | 38 | 1009.4 |
| 20260504211646 | 87 | 2 | 0.0 | 2.0 | 0.00 | 0.00 | 0.00 | 37 | 1009.5 |